OBJECT S, 57182

Orbit data source: Space-Track

You're viewing an uncataloged RSO

Recently launched and/or uncataloged RSOs may have evolving metadata. Metadata may include the following, but is not limited to: Owner, Manufacturer, Bus, Motor, and Mission.

OBJECT S, 57182 is a satellite in SSO that was launched on Tue, 27 Jun 2023 UTC via a SOYUZ-2-1B launch vehicle from the Vostochny Cosmodrome (VOSTO). Unknown objects in Earth's orbit typically refer to objects detected orbiting the Earth but have not yet been identified or cataloged. These objects could be anything from previously untracked satellites, spent rocket stages, debris from satellite collisions, or even natural meteoroids temporarily captured by Earth's gravity.

Loading next visibility...
Identifier
57182, 2023-091S
Orbit
SSO
Country
Flag of TBDTBD
Related business
Manufacturer
Sputniks
Mission
Operational Amateur Science
Bus & Motor
CUBESAT 3U, Unknown motor
Mass
5 kg wet, 5 kg dry
Launch date (UTC)
2023-06-27 (3 years ago)
Launch vehicle
SOYUZ-2-1B
Launch site
Vostochny Cosmodrome (VOSTO)
Object type
Unknown
Shape & HBR
Box, 0.2 m
Radar Cross Section
0.035 m², Medium (>0.1 m² and < 1m²)

Expand to show TLE details & history
Last TLE update: 5 hours ago

TLE from 5 hours ago
0 OBJECT S
1 57182U 23091S   26257.13208808  .00009491  00000-0  33412-3 0  9999
2 57182  97.4985 321.2644 0012191 140.5282 219.6848 15.29469037177880
Epoch: 2026-09-14T03:10Z
TLE epoch observation values (Epoch: 2026-09-14T03:10:12.410Z)
Latitude
-0.00003°
Longitude
-79.40408°
Altitude
486.936 km
Speed
7.618 km/s
True Right ascension
21h 25m 03s
True Declination
0° 00' 00"
Sunlit
Object was in full shadow at epoch
Visualization orbit readout
Latitude
Unknown
Longitude
Unknown
Altitude
Unknown
Speed
Unknown
Apparent Right ascension
Unknown
Apparent Declination
Unknown
Sunlit
N/A
Visualization observer readout
Local Sidereal Time
01:05:03
Azimuth
Unknown
Elevation
Unknown
Doppler factor
Unknown
Orbital elements
Apogee altitude
482.71 km
Perigee altitude
466.002 km
Semi-major axis
6,852.493 km
Eccentricity
0.00122
Inclination
97.4985°
RAAN
321.2644°
Arg. of periapsis
140.5282°
True anomaly
219.5957°
Mean anomaly
219.6848°
Eccentric anomaly
219.64024°
Mean motion
3.82622 °/min
Orbital period
94.09 mins
BSTAR
0.00033412
Loading maneuver chart data...
Computing Atmospheric mass density...
Loading historical data...
Loading historical data...
Loading historical data...
Loading historical data...
Loading historical data...
Loading historical data...
Loading historical data...

Documentation

Showing up to 5 results
|